Tracking 19146 objects as of 23-Apr-2018
HD Live streaming from Space Station
objects crossing your sky now

FLOCK 3P 13

Track FLOCK 3P 13 now!
10-day predictions
FLOCK 3P 13 is classified as:


NORAD ID: 42040
Int'l Code: 2017-008CW
Perigee: 495.5 km
Apogee: 505.3 km
Inclination: 97.5 °
Period: 94.5 minutes
Semi major axis: 6871 km
RCS: Unknown
Launch date: February 15, 2017
Source: United States (US)
Launch site: SRIHARIKOTA (SRI)
aabbcc
Your satellite tracking list
Your tracking list is empty




NASA's NSSDC Master Catalog

Two Line Element Set (TLE):
1 42040U 17008CW  18113.15989774  .00002977  00000-0  12519-3 0  9996
2 42040  97.4547 178.4326 0007156 196.9914 163.1085 15.24170896 64891
Source of the keplerian elements: AFSPC